Regional Weather Roundup
Issued by NWS State College, PA

Home | Current Version | Previous Version | Graphics & Text | Print | Product List | Glossary On
Versions: 1 2 3 4 5 6 7 8 9 10 11 12 13 14 15 16 17 18 19 20 21 22 23 24 25 26 27 28 29 30 31 32 33 34 35 36 37 38 39 40 41 42 43 44 45 46 47 48 49 50
000
ASUS41 KCTP 221510
RWRCTP

REGIONAL WEATHER ROUNDUP
NATIONAL WEATHER SERVICE STATE COLLEGE PA
1000 AM EST WED FEB 22 2017

Note: "fair" indicates few or no clouds below 12,000 feet with no
significant weather and/or obstructions to visibility.

* = STATION THAT DOES NOT REPORT PRECIPITATION /E.G. RAIN...SNOW...ETC/
    THUNDER OR FOG.

PAZ002>004-007>009-013>016-020>023-029>032-221600-
WESTERN PENNSYLVANIA

CITY           SKY/WX    TMP DP  RH WIND       PRES   REMARKS
ERIE           CLOUDY    57  48  72 S8        29.88F
MEADVILLE      RAIN      52  48  86 S6        29.92S FOG
FRANKLIN*      CLOUDY    52  45  76 S9        29.94F
NEW CASTLE     LGT RAIN  52  51  97 S3        29.94F FOG
BEAVER COUNTY  CLOUDY    54  46  76 S5        29.95S
BUTLER*        CLOUDY    57  43  58 S6        29.95F
PITTSBURGH INT CLOUDY    57  44  62 S5        29.95S
PITTSBURGH     CLOUDY    57  40  52 S7        29.95S
INDIANA*       CLOUDY    55  43  62 SW6       29.98F
LATROBE        CLOUDY    55  45  67 SW5       29.97F
WASHINGTON CO* CLOUDY    57  45  62 SW6       29.97F
$$

PAZ004>006-010>012-017>019-024>028-033>037-041-042-045-046-049>053-221600-
CENTRAL PENNSYLVANIA

CITY           SKY/WX    TMP DP  RH WIND       PRES   REMARKS
BRADFORD       CLOUDY    51  40  65 VRB5      29.94F
DUBOIS         CLOUDY    55  39  54 SW6       29.94F
CLEARFIELD       N/A    N/A N/A N/A MISG      29.96F
JOHNSTOWN      CLOUDY    53  40  61 SW6       29.96F
ALTOONA        CLOUDY    50  39  66 CALM      29.97F
STATE COLLEGE  CLOUDY    46  36  66 CALM      29.97F
WILLIAMSPORT   CLOUDY    45  34  65 CALM      29.98F
SELINSGROVE    CLOUDY    47  36  65 S3        30.00F
FT INDIANTOWN  PTSUNNY   44  41  89 CALM      30.02S
CAPITAL CITY   CLOUDY    47  37  68 E5        30.02F
HARRISBURG     CLOUDY    47  39  74 E5        30.02S
YORK           MOSUNNY   50  40  68 CALM      30.01F
$$

PAZ038>040-043-044-047-048-054-055-060>062-067>071-221600-
EASTERN PENNSYLVANIA

CITY           SKY/WX    TMP DP  RH WIND       PRES   REMARKS
SCRANTON       CLOUDY    46  39  76 N3        29.99F
MOUNT POCONO   CLOUDY    43  35  73 NW5       29.97F
ALLENTOWN      CLOUDY    45  35  68 W3        30.02F
QUAKERTOWN*    CLOUDY    45  37  76 SW3       30.02F
READING        CLOUDY    48  39  71 S7        30.02S
LANCASTER      PTSUNNY   48  40  73 CALM      30.02F
COATESVILLE    PTSUNNY   45  39  81 VRB5      30.03F
POTTSTOWN      CLOUDY    45  37  73 VRB3      30.04F
BLUE BELL      CLOUDY    45  37  76 SW3       30.02F
DOYLESTOWN     CLOUDY    46  38  73 S3        30.01F
WILLOW GROVE   NOT AVBL
NORTH PHILA    CLOUDY    45  41  86 S3        30.05F
PHILADELPHIA   CLOUDY    45  38  76 W7        30.05S
$$



USA.gov is the U.S. government's official web portal to all federal, state and local government web resources and services.